CAPE
0 0 0 0 0 0 0 0 0 75 839 1106 1008 957 956 1053 959 933 837 485 407 422 347 156 34 8 19 47 55 11 0 0 0 0 0 0 0 0 0 0 0 0 0
0 0 0 0 0 0 0 0 0 10 409 854 1003 917 817 796 962 1005 994 763 734 657 393 248 138 53 31 53 86 53 0 0 0 1 2 0 0 0 0 0 0 0 0
0 0 0 0 0 0 0 0 0 0 91 762 853 876 870 761 780 776 1065 1046 849 938 543 311 206 117 81 108 109 96 14 5 5 2 5 0 0 0 0 0 0 0 0
0 0 0 0 0 0 0 0 0 0 0 423 780 755 753 766 738 655 816 1078 983 907 673 398 294 191 132 182 142 129 72 48 40 21 27 2 2 3 5 0 0 0 0
0 0 0 0 0 0 0 0 0 0 0 0 488 854 805 695 524 656 694 877 879 910 821 560 322 145 259 211 190 153 107 88 88 46 22 13 11 4 11 0 0 0 0
0 0 0 0 0 0 0 0 0 0 0 0 0 435 735 761 705 665 559 634 710 672 677 728 505 239 244 254 238 170 183 192 135 29 62 33 13 7 1 1 0 0 0
0 0 0 0 0 0 0 0 0 0 0 0 0 0 226 660 620 704 641 516 729 571 566 580 464 279 241 199 192 168 184 134 172 66 40 4 0 26 1 5 0 0 0
0 0 0 0 0 0 0 0 0 0 0 0 0 0 0 57 392 505 401 384 503 539 604 545 433 347 168 105 112 81 145 104 82 68 7 3 8 2 23 2 4 0 0
0 0 0 0 0 0 0 0 0 0 0 0 0 0 0 0 20 125 235 410 347 534 611 435 393 176 110 45 74 106 122 75 84 73 5 7 10 6 2 8 0 0 0
0 0 0 0 0 0 0 0 0 0 0 0 0 0 0 0 8 19 51 230 232 349 553 425 161 108 62 39 70 107 70 38 61 24 3 30 1 1 0 0 0 0 0
0 0 0 0 0 0 0 0 0 0 0 0 0 0 0 0 0 0 15 103 214 290 246 273 68 46 36 49 74 57 34 10 23 14 10 2 2 4 1 0 0 0 0
0 0 0 0 0 0 0 0 2 2 0 5 9 2 0 0 0 0 7 40 130 166 262 70 47 39 52 68 65 56 35 16 30 12 0 0 0 0 0 0 0 0 0
0 0 0 0 0 0 0 3 2 0 3 11 22 11 5 6 1 3 22 164 90 224 179 61 84 150 93 70 15 16 32 40 16 0 0 2 0 0 0 0 0 0 0
0 0 0 0 0 0 0 6 0 1 3 0 75 90 80 153 118 75 188 251 97 99 87 164 130 139 52 21 23 29 32 5 0 0 0 0 0 0 0 0 0 0 0
0 1 2 1 0 0 0 0 0 0 0 1 6 77 109 108 131 276 273 250 182 82 50 74 76 29 11 8 24 16 4 0 7 0 0 0 0 0 0 0 0 0 0
0 3 1 2 11 1 0 0 0 0 0 4 10 41 37 43 90 177 255 67 23 2 7 20 48 28 58 30 11 3 0 0 0 0 0 0 0 0 0 0 0 0 0
0 0 1 5 4 0 0 0 0 4 42 50 33 15 56 99 104 147 45 11 8 4 12 2 29 9 12 6 0 0 0 0 0 0 0 0 0 0 0 0 0 0 0
0 0 0 0 0 0 1 7 6 20 30 14 54 53 79 3 40 4 35 13 31 23 34 8 3 17 0 0 0 0 0 0 0 0 0 0 0 0 0 0 0 0 0
0 0 0 0 0 2 0 3 5 6 0 0 0 0 0 4 13 2 5 2 16 13 4 0 1 0 0 0 0 0 0 0 0 0 0 0 0 0 0 0 0 0 0
0 0 6 0 0 0 0 0 0 0 0 2 13 3 6 13 13 1 13 1 0 0 0 0 0 0 0 0 0 0 0 0 0 0 0 0 0 0 0 0 0 0 0
0 0 0 0 0 4 0 2 0 1 6 1 9 2 0 0 0 0 0 0 0 0 0 0 0 0 0 0 0 0 0 0 0 0 0 0 0 0 0 0 0 0 0
0 0 0 0 11 2 7 6 0 0 1 0 0 0 0 0 0 0 0 0 0 0 0 0 0 0 0 0 0 0 0 0 0 0 0 0 0 0 0 0 0 0 0
0 0 0 0 0 8 1 0 0 0 0 0 0 0 0 0 3 0 0 0 0 0 0 0 0 0 0 0 0 0 0 0 0 0 0 0 0 0 0 0 0 0 0
0 0 0 0 0 0 0 0 0 0 0 0 0 0 0 0 0 0 0 0 0 0 0 0 0 0 0 0 0 0 0 0 0 0 0 0 0 0 0 0 0 0 0
0 0 0 0 0 0 0 0 0 0 0 0 0 0 0 0 0 0 0 0 0 0 0 0 0 0 0 0 0 0 0 0 0 0 0 0 0 0 0 0 0 0 0
0 0 0 0 0 0 0 1 0 0 0 0 0 0 0 0 0 0 0 0 0 0 0 0 0 0 0 0 0 0 0 0 0 0 0 0 0 0 0 0 0 0 0
CIN
0 0 0 0 0 0 0 0 0 -188 -114 -72 -53 -54 -68 -34 -36 -40 -53 -91 -93 -85 -102 -101 -105 -83 -173 -102 -66 -100 0 0 0 0 0 0 0 0 0 0 0 0 0
0 0 0 0 0 0 0 0 0 -128 -138 -119 -98 -53 -54 -71 -49 -37 -35 -53 -61 -61 -91 -92 -89 -86 -121 -92 -72 -40 0 0 0 0 0 0 0 0 0 0 0 0 0
0 0 0 0 0 0 0 0 0 0 -189 -90 -94 -65 -55 -62 -51 -49 -27 -29 -46 -44 -78 -86 -63 -71 -70 -55 -58 -23 -33 -14 -6 -2 -1 0 0 0 0 0 0 0 0
0 0 0 0 0 0 0 0 0 0 0 -87 -67 -79 -81 -41 -40 -61 -54 -27 -23 -36 -61 -79 -57 -48 -61 -41 -36 -36 -23 -13 -3 0 -1 -8 -4 -1 0 0 0 0 0
0 0 0 0 0 0 0 0 0 0 0 0 -64 -56 -50 -51 -42 -70 -52 -39 -43 -37 -29 -64 -55 -70 -35 -43 -37 -29 -21 -5 0 -1 -1 0 -1 -2 0 0 0 0 0
0 0 0 0 0 0 0 0 0 0 0 0 0 -91 -56 -38 -32 -44 -49 -33 -57 -51 -45 -29 -59 -58 -58 -42 -31 -25 -1 -1 -2 -1 0 -3 -5 -2 -1 0 0 0 0
0 0 0 0 0 0 0 0 0 0 0 0 0 0 -179 -52 -42 -39 -36 -33 -56 -64 -54 -44 -53 -69 -74 -60 -34 -15 -2 -2 -1 0 0 -2 0 -1 -2 -1 0 0 0
0 0 0 0 0 0 0 0 0 0 0 0 0 0 0 -179 -121 -73 -51 -38 -28 -36 -59 -48 -52 -66 -93 -75 -34 -21 0 0 0 0 -25 -3 0 0 -1 -3 0 0 0
0 0 0 0 0 0 0 0 0 0 0 0 0 0 0 0 -179 -250 -157 -69 -36 -43 -25 -43 -48 -82 -70 -58 -26 -1 0 -1 -3 -1 -9 -1 -3 -9 0 0 0 0 0
0 0 0 0 0 0 0 0 0 0 0 0 0 0 0 0 -208 -168 -213 -108 -82 -51 -29 -34 -71 -68 -19 -34 -8 0 0 -2 -2 -7 -45 -1 -9 -2 0 0 0 0 0
0 0 0 0 0 0 0 0 0 0 0 0 0 0 0 0 0 0 -137 -141 -66 -48 -38 -35 -45 -36 -16 -7 -1 0 0 -1 -7 -3 -2 0 0 0 -1 0 0 0 0
0 0 0 0 0 0 0 0 -2 -4 0 -152 -115 -38 0 0 0 0 -104 -80 -95 -51 -19 -18 -26 -13 0 0 0 -1 0 -2 -3 -11 0 0 0 0 0 0 0 0 0
0 0 0 0 0 0 0 -8 -11 0 -116 -131 -102 -88 -151 -110 -9 -9 -45 -22 -76 -24 -15 -11 -5 0 0 -2 0 -1 -1 0 0 0 0 -1 0 0 0 0 0 0 0
0 0 0 0 -1 -1 0 -29 0 -102 -64 -8 -75 -69 -59 -36 -28 -38 -20 -9 -36 -41 -21 -5 0 -1 -18 -45 -1 0 -1 -2 0 0 0 0 0 0 0 0 0 0 0
0 0 0 -3 0 0 0 0 0 -10 -4 -25 -89 -48 -22 -19 -18 0 -2 0 0 -11 0 0 0 0 0 -7 -8 -10 -7 0 -1 0 0 0 0 0 0 0 0 0 0
0 -4 0 0 0 -1 0 0 0 0 0 0 -86 -39 -22 -21 -19 -8 0 -21 -9 -2 0 -2 -1 -1 -1 -12 0 -3 0 0 0 0 0 0 0 0 0 0 0 0 0
0 0 0 0 -1 -3 0 0 -1 -9 -34 -31 -35 -15 -3 0 -1 0 0 -5 0 0 -9 -22 -2 -14 -23 -2 0 0 0 0 0 0 0 0 0 0 0 0 0 0 0
0 0 0 0 0 0 0 -1 0 -1 0 -4 0 -1 -3 -1 0 -3 -10 -19 -1 -9 -1 -27 -1 -5 0 0 0 0 0 0 0 0 0 0 0 0 0 0 0 0 0
0 0 0 0 0 0 0 0 -1 -1 0 0 0 0 0 -1 0 -2 0 -1 0 -2 0 0 0 0 0 0 0 0 0 0 0 0 0 0 0 0 0 0 0 0 0
0 0 0 0 0 0 0 0 0 0 -1 -1 0 -1 0 0 0 -1 0 0 0 0 0 0 0 0 0 0 0 0 0 0 0 0 0 0 0 0 0 0 0 0 0
0 0 0 0 0 0 0 0 0 0 0 0 -1 -2 0 0 -1 0 0 0 0 0 0 0 0 0 0 0 0 0 0 0 0 0 0 0 0 0 0 0 0 0 0
0 0 0 0 0 0 0 -1 0 0 -6 0 0 0 0 0 0 0 0 0 0 0 0 0 0 0 0 0 0 0 0 0 0 0 0 0 0 0 0 0 0 0 0
0 0 0 0 0 0 -1 0 0 0 0 0 0 0 0 0 0 0 0 0 0 0 0 0 0 0 0 0 0 0 0 0 0 0 0 0 0 0 0 0 0 0 0
0 0 0 0 0 0 0 0 0 0 0 0 0 0 0 0 0 0 0 0 0 0 0 0 0 0 0 0 0 0 0 0 0 0 0 0 0 0 0 0 0 0 0
0 0 0 0 0 0 0 0 0 0 0 0 0 0 0 0 0 0 0 0 0 0 0 0 0 0 0 0 0 0 0 0 0 0 0 0 0 0 0 0 0 0 0
0 0 0 0 0 0 0 0 0 0 0 0 0 0 0 0 0 0 0 0 0 0 0 0 0 0 0 0 0 0 0 0 0 0 0 0 0 0 0 0 0 0 0
Wind_Speed
nan nan nan nan nan nan nan nan nan nan 38 37 37 37 33 32 32 29 28 31 33 36 38 37 nan nan nan nan nan nan nan nan nan nan nan nan nan nan nan nan nan nan nan
nan nan nan nan nan nan nan nan nan nan 38 38 35 37 37 35 34 34 32 32 35 38 42 42 38 nan nan nan nan nan nan nan nan nan nan nan nan nan nan nan nan nan nan
nan nan nan nan nan nan nan nan nan nan nan 40 42 47 47 46 44 40 34 34 37 39 42 45 43 41 nan 35 37 nan nan nan nan nan nan nan nan nan nan nan nan nan nan
nan nan nan nan nan nan nan nan nan nan nan 46 47 41 40 40 37 37 37 37 39 41 44 44 44 44 38 41 38 37 nan nan nan nan nan nan nan nan nan nan nan nan nan
nan nan nan nan nan nan nan nan nan nan nan nan 47 47 42 41 42 41 40 44 45 43 44 50 49 47 46 45 42 40 40 nan nan nan nan nan nan nan nan nan nan nan nan
nan nan nan nan nan nan nan nan nan nan nan nan nan 47 44 53 53 50 46 47 48 48 46 47 50 49 49 49 47 44 44 43 47 nan nan nan nan nan nan nan nan nan nan
nan nan nan nan nan nan nan nan nan nan nan nan nan nan 49 57 55 55 53 53 50 49 50 50 50 51 51 53 51 50 50 47 48 nan nan nan nan nan nan nan nan nan nan
nan nan nan nan nan nan nan nan nan nan nan nan nan nan nan nan 59 61 63 56 55 50 53 55 53 53 55 54 55 nan 53 52 nan nan nan nan nan nan nan nan nan nan nan
nan nan nan nan nan nan nan nan nan nan nan nan nan nan nan nan nan 67 68 67 65 61 56 58 60 56 56 nan nan 57 56 nan nan nan nan nan nan nan nan nan nan nan nan
nan nan nan nan nan nan nan nan nan nan nan nan nan nan nan nan nan nan nan 75 73 68 61 62 62 58 nan nan nan 60 nan nan nan nan nan nan nan nan nan nan nan nan nan
nan nan nan nan nan nan nan nan nan nan nan nan nan nan nan nan nan nan nan 66 71 73 66 64 nan nan nan nan nan nan nan nan nan nan nan nan nan nan nan nan nan nan nan
nan nan nan nan nan nan nan nan nan nan nan nan nan nan nan nan nan nan nan nan 67 61 68 nan nan nan nan nan nan nan nan nan nan nan nan nan nan nan nan nan nan nan nan
nan nan nan nan nan nan nan nan nan nan nan nan nan nan nan nan nan nan nan 70 nan 62 56 nan nan 66 nan nan nan nan nan nan nan nan nan nan nan nan nan nan nan nan nan
nan nan nan nan nan nan nan nan nan nan nan nan nan nan nan 52 57 nan 66 64 nan nan nan 64 64 64 nan nan nan nan nan nan nan nan nan nan nan nan nan nan nan nan nan
nan nan nan nan nan nan nan nan nan nan nan nan nan nan 42 49 57 61 64 69 68 nan nan nan nan nan nan nan nan nan nan nan nan nan nan nan nan nan nan nan nan nan nan
nan nan nan nan nan nan nan nan nan nan nan nan nan nan nan nan nan 41 39 nan nan nan nan nan nan nan nan nan nan nan nan nan nan nan nan nan nan nan nan nan nan nan nan
nan nan nan nan nan nan nan nan nan nan nan nan nan nan nan nan 26 30 nan nan nan nan nan nan nan nan nan nan nan nan nan nan nan nan nan nan nan nan nan nan nan nan nan
nan nan nan nan nan nan nan nan nan nan nan nan nan nan nan nan nan nan nan nan nan nan nan nan nan nan nan nan nan nan nan nan nan nan nan nan nan nan nan nan nan nan nan
nan nan nan nan nan nan nan nan nan nan nan nan nan nan nan nan nan nan nan nan nan nan nan nan nan nan nan nan nan nan nan nan nan nan nan nan nan nan nan nan nan nan nan
nan nan nan nan nan nan nan nan nan nan nan nan nan nan nan nan nan nan nan nan nan nan nan nan nan nan nan nan nan nan nan nan nan nan nan nan nan nan nan nan nan nan nan
nan nan nan nan nan nan nan nan nan nan nan nan nan nan nan nan nan nan nan nan nan nan nan nan nan nan nan nan nan nan nan nan nan nan nan nan nan nan nan nan nan nan nan
nan nan nan nan nan nan nan nan nan nan nan nan nan nan nan nan nan nan nan nan nan nan nan nan nan nan nan nan nan nan nan nan nan nan nan nan nan nan nan nan nan nan nan
nan nan nan nan nan nan nan nan nan nan nan nan nan nan nan nan nan nan nan nan nan nan nan nan nan nan nan nan nan nan nan nan nan nan nan nan nan nan nan nan nan nan nan
nan nan nan nan nan nan nan nan nan nan nan nan nan nan nan nan nan nan nan nan nan nan nan nan nan nan nan nan nan nan nan nan nan nan nan nan nan nan nan nan nan nan nan
nan nan nan nan nan nan nan nan nan nan nan nan nan nan nan nan nan nan nan nan nan nan nan nan nan nan nan nan nan nan nan nan nan nan nan nan nan nan nan nan nan nan nan
nan nan nan nan nan nan nan nan nan nan nan nan nan nan nan nan nan nan nan nan nan nan nan nan nan nan nan nan nan nan nan nan nan nan nan nan nan nan nan nan nan nan nan
Wind_Direction
nan nan nan nan nan nan nan nan nan nan 263 257 260 260 269 270 264 269 274 278 281 285 285 283 nan nan nan nan nan nan nan nan nan nan nan nan nan nan nan nan nan nan nan
nan nan nan nan nan nan nan nan nan nan 266 264 261 257 261 264 270 266 271 279 281 284 282 282 284 nan nan nan nan nan nan nan nan nan nan nan nan nan nan nan nan nan nan
nan nan nan nan nan nan nan nan nan nan nan 266 257 249 248 248 257 263 269 275 277 274 279 282 284 286 nan 284 288 nan nan nan nan nan nan nan nan nan nan nan nan nan nan
nan nan nan nan nan nan nan nan nan nan nan 260 260 264 263 262 262 270 271 269 278 279 276 277 279 283 279 282 282 280 nan nan nan nan nan nan nan nan nan nan nan nan nan
nan nan nan nan nan nan nan nan nan nan nan nan 261 263 261 256 257 261 273 271 273 279 277 276 275 278 280 281 284 282 284 nan nan nan nan nan nan nan nan nan nan nan nan
nan nan nan nan nan nan nan nan nan nan nan nan nan 260 261 258 259 257 266 269 271 273 276 274 273 275 276 279 281 282 284 284 283 nan nan nan nan nan nan nan nan nan nan
nan nan nan nan nan nan nan nan nan nan nan nan nan nan 258 258 262 263 263 266 267 269 278 278 276 273 274 275 277 279 281 283 283 nan nan nan nan nan nan nan nan nan nan
nan nan nan nan nan nan nan nan nan nan nan nan nan nan nan nan 259 262 263 263 269 265 274 278 275 273 274 274 274 nan 277 279 nan nan nan nan nan nan nan nan nan nan nan
nan nan nan nan nan nan nan nan nan nan nan nan nan nan nan nan nan 262 262 262 260 260 265 269 272 272 270 nan nan 272 273 nan nan nan nan nan nan nan nan nan nan nan nan
nan nan nan nan nan nan nan nan nan nan nan nan nan nan nan nan nan nan nan 260 259 259 259 262 265 264 nan nan nan 271 nan nan nan nan nan nan nan nan nan nan nan nan nan
nan nan nan nan nan nan nan nan nan nan nan nan nan nan nan nan nan nan nan 259 258 258 258 258 nan nan nan nan nan nan nan nan nan nan nan nan nan nan nan nan nan nan nan
nan nan nan nan nan nan nan nan nan nan nan nan nan nan nan nan nan nan nan nan 255 257 258 nan nan nan nan nan nan nan nan nan nan nan nan nan nan nan nan nan nan nan nan
nan nan nan nan nan nan nan nan nan nan nan nan nan nan nan nan nan nan nan 247 nan 251 254 nan nan 260 nan nan nan nan nan nan nan nan nan nan nan nan nan nan nan nan nan
nan nan nan nan nan nan nan nan nan nan nan nan nan nan nan 250 249 nan 247 244 nan nan nan 255 256 259 nan nan nan nan nan nan nan nan nan nan nan nan nan nan nan nan nan
nan nan nan nan nan nan nan nan nan nan nan nan nan nan 254 258 259 258 250 244 242 nan nan nan nan nan nan nan nan nan nan nan nan nan nan nan nan nan nan nan nan nan nan
nan nan nan nan nan nan nan nan nan nan nan nan nan nan nan nan nan 244 244 nan nan nan nan nan nan nan nan nan nan nan nan nan nan nan nan nan nan nan nan nan nan nan nan
nan nan nan nan nan nan nan nan nan nan nan nan nan nan nan nan 237 239 nan nan nan nan nan nan nan nan nan nan nan nan nan nan nan nan nan nan nan nan nan nan nan nan nan
nan nan nan nan nan nan nan nan nan nan nan nan nan nan nan nan nan nan nan nan nan nan nan nan nan nan nan nan nan nan nan nan nan nan nan nan nan nan nan nan nan nan nan
nan nan nan nan nan nan nan nan nan nan nan nan nan nan nan nan nan nan nan nan nan nan nan nan nan nan nan nan nan nan nan nan nan nan nan nan nan nan nan nan nan nan nan
nan nan nan nan nan nan nan nan nan nan nan nan nan nan nan nan nan nan nan nan nan nan nan nan nan nan nan nan nan nan nan nan nan nan nan nan nan nan nan nan nan nan nan
nan nan nan nan nan nan nan nan nan nan nan nan nan nan nan nan nan nan nan nan nan nan nan nan nan nan nan nan nan nan nan nan nan nan nan nan nan nan nan nan nan nan nan
nan nan nan nan nan nan nan nan nan nan nan nan nan nan nan nan nan nan nan nan nan nan nan nan nan nan nan nan nan nan nan nan nan nan nan nan nan nan nan nan nan nan nan
nan nan nan nan nan nan nan nan nan nan nan nan nan nan nan nan nan nan nan nan nan nan nan nan nan nan nan nan nan nan nan nan nan nan nan nan nan nan nan nan nan nan nan
nan nan nan nan nan nan nan nan nan nan nan nan nan nan nan nan nan nan nan nan nan nan nan nan nan nan nan nan nan nan nan nan nan nan nan nan nan nan nan nan nan nan nan
nan nan nan nan nan nan nan nan nan nan nan nan nan nan nan nan nan nan nan nan nan nan nan nan nan nan nan nan nan nan nan nan nan nan nan nan nan nan nan nan nan nan nan
nan nan nan nan nan nan nan nan nan nan nan nan nan nan nan nan nan nan nan nan nan nan nan nan nan nan nan nan nan nan nan nan nan nan nan nan nan nan nan nan nan nan nan